Showing default

SPOT 7, 40053

Orbit data source: Space-Track

SPOT 7, 40053 is a payload satellite owned by CNES (AZ) in SSO that was launched on Mon, 30 Jun 2014 UTC via a PSLV launch vehicle from the Sirharikota (SRI). Payload-class satellites include a variety of spacecraft equipped with specific instruments for various scientific and technological missions. These include communications satellites like Starlink; space stations such as the ISS; scientific satellites like the Hubble; Earth observation satellites from companies like Planet Labs, Umbra, and HawkEye 360; GPS; miniature CubeSats for education and research; and military/defense satellites.

Loading next visibility...
Identifier
40053, 2014-034A
Orbit
SSO
Country
Flag of AZAZ / AZER
Related business
Manufacturer
Airbus (UK)
Mission
Operational Commercial Imaging
Bus & Motor
ASTROSAT-500L, AOCS
Mass
712 kg wet, ~712 kg dry
Launch date (UTC)
2014-06-30 (12 years ago)
Launch vehicle
PSLV
Launch site
Sirharikota (SRI)
Object type
Payload
Rocket body
Debris
Shape & HBR
Hex Cyl + 3 Pan, 3.2 m
Radar Cross Section
9.390 m², Large (>1 m²)

Expand to show TLE details & history
Last TLE update: 23 hours ago

TLE from 23 hours ago
0 SPOT 7
1 40053U 14034A   26172.49638149  .00000684  00000-0  14881-3 0  9999
2 40053  98.0622 234.8775 0001282  95.4962 264.6386 14.60962750637769
Epoch: 2026-06-21T11:54Z
TLE epoch observation values (Epoch: 2026-06-21T11:54:47.360Z)
Latitude
0.00003°
Longitude
146.48435°
Altitude
693.142 km
Speed
7.51 km/s
True Right ascension
15h 39m 30s
True Declination
0° 00' 00"
Sunlit
Object was in full shadow at epoch
Visualization orbit readout
Latitude
Unknown
Longitude
Unknown
Altitude
Unknown
Speed
Unknown
Apparent Right ascension
Unknown
Apparent Declination
Unknown
Sunlit
N/A
Visualization observer readout
Local Sidereal Time
21:41:51
Azimuth
Unknown
Elevation
Unknown
Doppler factor
Unknown
Orbital elements
Apogee altitude
688.046 km
Perigee altitude
686.235 km
Semi-major axis
7,065.278 km
Eccentricity
0.00013
Inclination
98.0622°
RAAN
234.8775°
Arg. of periapsis
95.4962°
True anomaly
264.62397°
Mean anomaly
264.6386°
Eccentric anomaly
264.63129°
Mean motion
3.65468 °/min
Orbital period
98.5 mins
BSTAR
0.00014881
Loading maneuver chart data...
Computing Atmospheric mass density...
Loading historical data...
Loading historical data...
Loading historical data...
Loading historical data...
Loading historical data...
Loading historical data...
Loading historical data...
Other satellites on launch #34 in the year 2014 (2014-06-30 UTC)

Documentation

Showing up to 5 results
|